Вернуться в каталог

GONETS M 20

АктивенСвязьPO
NORAD 47227·PAYLOAD·🇷🇺 Russia

Запущен Dec 3, 2020 с Plesetsk Cosmodrome

Loading…

Ближайшие Пролёты (ближайшие 24 часа)

TLE

СвежийSource: Space-Track

Эпоха: Sep 15, 2026, 00:01 UTC

1 47227U 20091A   26258.00117782  .00000026  00000-0  11912-3 0  9998
2 47227  82.4988 246.5963 0020709 348.5966  11.4641 12.42896387262239

Отслеживайте GONETS M 20 в реальном времени с AllMySat

Download on the App Store